• In Österreich
  • Länderverzeichnis
  • Für 7 Tage
  • Wassertemperatur
  • Satellitenkarten
  • Wetterkarte
  • News
  • Widgets
  • user-avatar
    Anmelden

    Stündliche Wetter Shesheno

    Heute, 23 September, Sonntag

    Zeit Temperatur Niederschläge Wind Luftdruck Luftfeuchtigkeit
    00:00 +10°C° 0.1 mm 3 m/S 749 mmHg 93%
    01:00 +10°C° 0.1 mm 3 m/S 749 mmHg 93%
    02:00 +10°C° 0 mm 3 m/S 749 mmHg 94%
    03:00 +9°C° 0 mm 3 m/S 749 mmHg 94%
    04:00 +9°C° 0 mm 3 m/S 748 mmHg 95%
    05:00 +8°C° 0 mm 3 m/S 748 mmHg 95%
    06:00 +9°C° 0 mm 3 m/S 748 mmHg 93%
    07:00 +8°C° 0 mm 4 m/S 748 mmHg 91%
    08:00 +8°C° 0 mm 4 m/S 748 mmHg 89%
    09:00 +10°C° 0 mm 4 m/S 748 mmHg 84%
    10:00 +11°C° 0 mm 4 m/S 748 mmHg 79%
    11:00 +12°C° 0 mm 5 m/S 747 mmHg 74%
    12:00 +12°C° 0.2 mm 5 m/S 747 mmHg 72%
    13:00 +13°C° 0.2 mm 5 m/S 747 mmHg 70%
    14:00 +13°C° 0.2 mm 5 m/S 747 mmHg 68%
    15:00 +12°C° 0.2 mm 4 m/S 747 mmHg 71%
    16:00 +12°C° 0.2 mm 4 m/S 747 mmHg 74%
    17:00 +11°C° 0.2 mm 3 m/S 747 mmHg 78%
    18:00 +10°C° 0 mm 3 m/S 747 mmHg 80%
    19:00 +9°C° 0 mm 3 m/S 747 mmHg 83%
    20:00 +9°C° 0 mm 3 m/S 747 mmHg 86%
    21:00 +8°C° 0.1 mm 3 m/S 747 mmHg 87%
    22:00 +8°C° 0.1 mm 3 m/S 747 mmHg 89%
    23:00 +8°C° 0.1 mm 3 m/S 747 mmHg 91%

    Morgen, 24 September, Montag

    Zeit Temperatur Niederschläge Wind Luftdruck Luftfeuchtigkeit
    00:00 +8°C° 0 mm 3 m/S 747 mmHg 92%
    01:00 +7°C° 0 mm 3 m/S 747 mmHg 93%
    02:00 +7°C° 0 mm 3 m/S 747 mmHg 95%
    03:00 +7°C° 0 mm 2 m/S 747 mmHg 95%
    04:00 +7°C° 0 mm 2 m/S 747 mmHg 96%
    05:00 +6°C° 0 mm 2 m/S 746 mmHg 97%
    06:00 +7°C° 0 mm 2 m/S 746 mmHg 95%
    07:00 +8°C° 0 mm 2 m/S 746 mmHg 92%
    08:00 +8°C° 0 mm 2 m/S 746 mmHg 90%
    09:00 +9°C° 0 mm 2 m/S 746 mmHg 86%
    10:00 +11°C° 0 mm 1 m/S 745 mmHg 82%
    11:00 +12°C° 0 mm 1 m/S 745 mmHg 78%
    12:00 +12°C° 0.6 mm 1 m/S 745 mmHg 80%
    13:00 +12°C° 0.6 mm 1 m/S 745 mmHg 82%
    14:00 +12°C° 0.6 mm 1 m/S 744 mmHg 84%
    15:00 +10°C° 0.6 mm 2 m/S 744 mmHg 87%
    16:00 +10°C° 0.6 mm 2 m/S 744 mmHg 89%
    17:00 +9°C° 0.6 mm 2 m/S 743 mmHg 91%
    18:00 +9°C° 0.5 mm 3 m/S 743 mmHg 91%
    19:00 +8°C° 0.5 mm 4 m/S 743 mmHg 92%
    20:00 +7°C° 0.5 mm 4 m/S 743 mmHg 92%
    21:00 +7°C° 0.3 mm 5 m/S 743 mmHg 91%
    22:00 +7°C° 0.3 mm 5 m/S 743 mmHg 90%
    23:00 +7°C° 0.3 mm 6 m/S 743 mmHg 88%

    übermorgen, 25 September, Dienstag

    Zeit Temperatur Niederschläge Wind Luftdruck Luftfeuchtigkeit
    00:00 +5°C° 0.1 mm 6 m/S 743 mmHg 87%
    01:00 +6°C° 0.1 mm 5 m/S 744 mmHg 86%
    02:00 +5°C° 0.1 mm 5 m/S 744 mmHg 85%
    03:00 +5°C° 0 mm 5 m/S 744 mmHg 85%
    04:00 +5°C° 0 mm 5 m/S 745 mmHg 84%
    05:00 +4°C° 0 mm 6 m/S 745 mmHg 84%
    06:00 +4°C° 0 mm 6 m/S 746 mmHg 82%
    07:00 +4°C° 0 mm 6 m/S 746 mmHg 79%
    08:00 +4°C° 0 mm 6 m/S 747 mmHg 77%
    09:00 +5°C° 0 mm 6 m/S 747 mmHg 73%
    10:00 +7°C° 0 mm 6 m/S 748 mmHg 69%
    11:00 +7°C° 0 mm 6 m/S 748 mmHg 65%
    12:00 +8°C° 0 mm 6 m/S 749 mmHg 62%
    13:00 +8°C° 0 mm 6 m/S 750 mmHg 59%
    14:00 +9°C° 0 mm 6 m/S 750 mmHg 55%
    15:00 +8°C° 0.1 mm 6 m/S 751 mmHg 59%
    16:00 +7°C° 0.1 mm 6 m/S 751 mmHg 63%
    17:00 +7°C° 0.1 mm 6 m/S 752 mmHg 67%
    18:00 +6°C° 0 mm 5 m/S 753 mmHg 66%
    19:00 +5°C° 0 mm 5 m/S 754 mmHg 64%
    20:00 +4°C° 0 mm 4 m/S 755 mmHg 63%
    21:00 +4°C° 0 mm 4 m/S 755 mmHg 64%
    22:00 +3°C° 0 mm 4 m/S 756 mmHg 65%
    23:00 +3°C° 0 mm 4 m/S 756 mmHg 67%

    26 September, Mittwoch

    Zeit Temperatur Niederschläge Wind Luftdruck Luftfeuchtigkeit
    00:00 +2°C° 0 mm 3 m/S 757 mmHg 70%
    01:00 +2°C° 0 mm 3 m/S 757 mmHg 74%
    02:00 +2°C° 0 mm 3 m/S 758 mmHg 77%
    03:00 +2°C° 0 mm 3 m/S 758 mmHg 81%
    04:00 +3°C° 0 mm 3 m/S 758 mmHg 84%
    05:00 +3°C° 0 mm 3 m/S 759 mmHg 88%
    06:00 +4°C° 0 mm 3 m/S 759 mmHg 83%
    07:00 +4°C° 0 mm 3 m/S 759 mmHg 78%
    08:00 +5°C° 0 mm 4 m/S 759 mmHg 74%
    09:00 +7°C° 0 mm 4 m/S 759 mmHg 66%
    10:00 +8°C° 0 mm 4 m/S 759 mmHg 59%
    11:00 +11°C° 0 mm 4 m/S 758 mmHg 52%
    12:00 +10°C° 0 mm 5 m/S 758 mmHg 53%
    13:00 +10°C° 0 mm 5 m/S 757 mmHg 53%
    14:00 +11°C° 0 mm 6 m/S 756 mmHg 54%
    15:00 +10°C° 0.2 mm 5 m/S 756 mmHg 63%
    16:00 +9°C° 0.2 mm 5 m/S 755 mmHg 72%
    17:00 +8°C° 0.2 mm 5 m/S 754 mmHg 81%
    18:00 +8°C° 0.8 mm 5 m/S 753 mmHg 84%
    19:00 +8°C° 0.8 mm 6 m/S 753 mmHg 87%
    20:00 +6°C° 0.8 mm 7 m/S 752 mmHg 90%
    21:00 +6°C° 1.7 mm 7 m/S 751 mmHg 90%
    22:00 +6°C° 1.7 mm 7 m/S 749 mmHg 90%
    23:00 +6°C° 1.7 mm 7 m/S 748 mmHg 91%

    27 September, Donnerstag

    Zeit Temperatur Niederschläge Wind Luftdruck Luftfeuchtigkeit
    00:00 +6°C° 1.6 mm 7 m/S 747 mmHg 91%
    01:00 +8°C° 1.6 mm 7 m/S 746 mmHg 91%
    02:00 +8°C° 1.6 mm 6 m/S 745 mmHg 91%
    03:00 +8°C° 1.9 mm 7 m/S 744 mmHg 91%
    04:00 +8°C° 1.9 mm 7 m/S 742 mmHg 91%
    05:00 +8°C° 1.9 mm 7 m/S 741 mmHg 92%
    06:00 +9°C° 0.8 mm 7 m/S 740 mmHg 91%
    07:00 +10°C° 0.8 mm 7 m/S 740 mmHg 90%
    08:00 +11°C° 0.8 mm 7 m/S 739 mmHg 89%
    09:00 +11°C° 0.7 mm 6 m/S 740 mmHg 88%
    10:00 +11°C° 0.7 mm 6 m/S 740 mmHg 86%
    11:00 +11°C° 0.7 mm 6 m/S 740 mmHg 84%
    12:00 +12°C° 0.6 mm 7 m/S 740 mmHg 81%
    13:00 +12°C° 0.6 mm 7 m/S 741 mmHg 77%
    14:00 +12°C° 0.6 mm 8 m/S 741 mmHg 73%
    15:00 +10°C° 0.1 mm 8 m/S 742 mmHg 73%
    16:00 +9°C° 0.1 mm 8 m/S 743 mmHg 72%
    17:00 +7°C° 0.1 mm 8 m/S 744 mmHg 71%
    18:00 +6°C° 0 mm 7 m/S 745 mmHg 72%
    19:00 +7°C° 0 mm 6 m/S 746 mmHg 73%
    20:00 +6°C° 0 mm 5 m/S 747 mmHg 73%
    21:00 +6°C° 0 mm 5 m/S 747 mmHg 74%
    22:00 +6°C° 0 mm 5 m/S 748 mmHg 75%
    23:00 +5°C° 0 mm 5 m/S 749 mmHg 76%

    28 September, Freitag

    Zeit Temperatur Niederschläge Wind Luftdruck Luftfeuchtigkeit
    00:00 +5°C° 0 mm 4 m/S 749 mmHg 77%
    01:00 +4°C° 0 mm 4 m/S 749 mmHg 78%
    02:00 +4°C° 0 mm 3 m/S 750 mmHg 79%
    03:00 +4°C° 0 mm 3 m/S 750 mmHg 80%
    04:00 +4°C° 0 mm 3 m/S 750 mmHg 80%
    05:00 +4°C° 0 mm 3 m/S 750 mmHg 81%
    06:00 +5°C° 0 mm 2 m/S 750 mmHg 82%
    07:00 +6°C° 0 mm 2 m/S 750 mmHg 82%
    08:00 +6°C° 0 mm 2 m/S 750 mmHg 82%
    09:00 +7°C° 0.1 mm 2 m/S 751 mmHg 79%
    10:00 +8°C° 0.1 mm 2 m/S 751 mmHg 76%
    11:00 +9°C° 0.1 mm 2 m/S 751 mmHg 73%
    12:00 +10°C° 0.2 mm 2 m/S 751 mmHg 69%
    13:00 +10°C° 0.2 mm 2 m/S 751 mmHg 66%
    14:00 +11°C° 0.2 mm 3 m/S 752 mmHg 63%
    15:00 +10°C° 0 mm 2 m/S 752 mmHg 67%
    16:00 +9°C° 0 mm 2 m/S 753 mmHg 71%
    17:00 +8°C° 0 mm 2 m/S 753 mmHg 76%
    18:00 +7°C° 0 mm 2 m/S 753 mmHg 80%
    19:00 +6°C° 0 mm 2 m/S 754 mmHg 84%
    20:00 +5°C° 0 mm 2 m/S 754 mmHg 88%
    21:00 +5°C° 0 mm 2 m/S 755 mmHg 89%
    22:00 +5°C° 0 mm 2 m/S 755 mmHg 90%
    23:00 +5°C° 0 mm 2 m/S 755 mmHg 91%
    Mehr zeigen